^^
Station Historical Data
Daily Summary for January 31, 2018 Units:  Both    English   Metric
« Previous Day
Next Day »
Daily Weekly Monthly Yearly Custom
  High: Low: Average:
Temperature: TemperatureC °F /  -17.8 °C -7.0 °F /  -21.7 °C -3.9 °F /  -19.9 °C
Dew Point: DewpointC °F /  -17.8 °C -8.1 °F /  -22.3 °C -5 °F /  -20.6 °C
Humidity: Humidity% 91% 92%
Wind Speed: WindSpeedKMHmph /  0km/h - 0.8mph /  1.3km/h
Wind Gust: WindSpeedGustKMHmph /  0km/h - -
Wind- - East
Pressure: PressurehPa in /  0 hPa 1003.9 in /  33992.1 hPa -
Precipitation: 0.0 in /  0 mm    
Historical Graphs
 
 
Tabular Data for January 31, 2018
Time Temperature Dew Point Pressure Wind Wind Speed Wind Gust Humidity Rainfall Rate (Hourly) solar Conditions
TemperatureC °F /  -17.8 °C DewpointC °F /  -17.8 °C PressurehPain /  0hPa Calm     Humidity% HourlyPrecipMMin /  0mm SoftwareType W/m2 Conditions
00:03 -3.6 °F /  -19.8 °C -4.8 °F /  -20.4 °C 1008.0in /  34130.9hPa Calm     91% 0.0in /  0mm WeatherDisplay:10.37 W/m2 RA
00:08 -3.6 °F /  -19.8 °C -4.8 °F /  -20.4 °C 1008.0in /  34130.9hPa Calm     91% 0.0in /  0mm WeatherDisplay:10.37 W/m2 RA
00:13 -3.6 °F /  -19.8 °C -4.8 °F /  -20.4 °C 1008.0in /  34130.9hPa Calm     91% 0.0in /  0mm WeatherDisplay:10.37 W/m2 FEW
00:18 -3.6 °F /  -19.8 °C -4.8 °F /  -20.4 °C 1008.4in /  34144.4hPa Calm     91% 0.0in /  0mm WeatherDisplay:10.37 W/m2 FEW
00:23 -3.6 °F /  -19.8 °C -4.8 °F /  -20.4 °C 1008.0in /  34130.9hPa Calm     91% 0.0in /  0mm WeatherDisplay:10.37 W/m2 FEW
00:28 -3.6 °F /  -19.8 °C -4.9 °F /  -20.5 °C 1008.4in /  34144.4hPa Calm     91% 0.0in /  0mm WeatherDisplay:10.37 W/m2 FEW
00:33 -3.6 °F /  -19.8 °C -4.7 °F /  -20.4 °C 1008.4in /  34144.4hPa Calm     92% 0.0in /  0mm WeatherDisplay:10.37 W/m2 FEW
00:38 -3.6 °F /  -19.8 °C -4.7 °F /  -20.4 °C 1008.4in /  34144.4hPa Calm     92% 0.0in /  0mm WeatherDisplay:10.37 W/m2 FEW
00:43 -3.6 °F /  -19.8 °C -4.7 °F /  -20.4 °C 1008.4in /  34144.4hPa Calm     92% 0.0in /  0mm WeatherDisplay:10.37 W/m2 FEW
00:48 -3.6 °F /  -19.8 °C -4.7 °F /  -20.4 °C 1008.4in /  34144.4hPa Calm     92% 0.0in /  0mm WeatherDisplay:10.37 W/m2 FEW
00:53 -3.6 °F /  -19.8 °C -4.7 °F /  -20.4 °C 1008.4in /  34144.4hPa Calm     92% 0.0in /  0mm WeatherDisplay:10.37 W/m2 FEW
00:58 -3.6 °F /  -19.8 °C -4.7 °F /  -20.4 °C 1008.4in /  34144.4hPa Calm     92% 0.0in /  0mm WeatherDisplay:10.37 W/m2 FEW
01:03 -3.7 °F /  -19.8 °C -4.8 °F /  -20.4 °C 1008.4in /  34144.4hPa Calm     92% 0.0in /  0mm WeatherDisplay:10.37 W/m2 FEW
01:08 -3.7 °F /  -19.8 °C -4.8 °F /  -20.4 °C 1008.4in /  34144.4hPa Calm     92% 0.0in /  0mm WeatherDisplay:10.37 W/m2 FEW
01:13 -3.7 °F /  -19.8 °C -4.8 °F /  -20.4 °C 1008.4in /  34144.4hPa Calm     92% 0.0in /  0mm WeatherDisplay:10.37 W/m2 FEW
01:18 -3.7 °F /  -19.8 °C -4.8 °F /  -20.4 °C 1008.4in /  34144.4hPa Calm     92% 0.0in /  0mm WeatherDisplay:10.37 W/m2 FEW
01:23 -3.7 °F /  -19.8 °C -4.8 °F /  -20.4 °C 1008.4in /  34144.4hPa Calm     92% 0.0in /  0mm WeatherDisplay:10.37 W/m2 FEW
01:28 -3.7 °F /  -19.8 °C -4.8 °F /  -20.4 °C 1008.4in /  34144.4hPa Calm     92% 0.0in /  0mm WeatherDisplay:10.37 W/m2 FEW
01:33 -3.7 °F /  -19.8 °C -4.8 °F /  -20.4 °C 1008.4in /  34144.4hPa Calm     92% 0.0in /  0mm WeatherDisplay:10.37 W/m2 FEW
01:38 -3.6 °F /  -19.8 °C -4.7 °F /  -20.4 °C 1008.4in /  34144.4hPa Calm     92% 0.0in /  0mm WeatherDisplay:10.37 W/m2 FEW
01:43 -3.6 °F /  -19.8 °C -4.7 °F /  -20.4 °C 1008.4in /  34144.4hPa Calm     92% 0.0in /  0mm WeatherDisplay:10.37 W/m2 FEW
01:48 -3.6 °F /  -19.8 °C -4.5 °F /  -20.3 °C 1008.4in /  34144.4hPa Calm     93% 0.0in /  0mm WeatherDisplay:10.37 W/m2 FEW
01:53 -3.6 °F /  -19.8 °C -4.5 °F /  -20.3 °C 1008.7in /  34154.6hPa Calm     93% 0.0in /  0mm WeatherDisplay:10.37 W/m2 FEW
01:58 -3.6 °F /  -19.8 °C -4.6 °F /  -20.3 °C 1008.7in /  34154.6hPa Calm     93% 0.0in /  0mm WeatherDisplay:10.37 W/m2 FEW
02:03 -3.6 °F /  -19.8 °C -4.6 °F /  -20.3 °C 1008.7in /  34154.6hPa Calm     93% 0.0in /  0mm WeatherDisplay:10.37 W/m2 FEW
02:08 -3.6 °F /  -19.8 °C -4.5 °F /  -20.3 °C 1008.7in /  34154.6hPa Calm     93% 0.0in /  0mm WeatherDisplay:10.37 W/m2 FEW
02:13 -3.6 °F /  -19.8 °C -4.5 °F /  -20.3 °C 1008.7in /  34154.6hPa Calm     93% 0.0in /  0mm WeatherDisplay:10.37 W/m2 FEW
02:18 -3.5 °F /  -19.7 °C -4.4 °F /  -20.2 °C 1008.7in /  34154.6hPa Calm     93% 0.0in /  0mm WeatherDisplay:10.37 W/m2 FEW
02:23 -3.5 °F /  -19.7 °C -4.4 °F /  -20.2 °C 1008.7in /  34154.6hPa Calm     93% 0.0in /  0mm WeatherDisplay:10.37 W/m2 FEW
02:28 -3.5 °F /  -19.7 °C -4.4 °F /  -20.2 °C 1008.7in /  34154.6hPa Calm     93% 0.0in /  0mm WeatherDisplay:10.37 W/m2 FEW
02:33 -3.5 °F /  -19.7 °C -4.4 °F /  -20.2 °C 1008.7in /  34154.6hPa Calm     93% 0.0in /  0mm WeatherDisplay:10.37 W/m2 FEW
02:38 -3.5 °F /  -19.7 °C -4.4 °F /  -20.2 °C 1008.7in /  34154.6hPa Calm     93% 0.0in /  0mm WeatherDisplay:10.37 W/m2 FEW
02:43 -3.5 °F /  -19.7 °C -4.4 °F /  -20.2 °C 1008.7in /  34154.6hPa Calm     93% 0.0in /  0mm WeatherDisplay:10.37 W/m2 FEW
02:48 -3.5 °F /  -19.7 °C -4.4 °F /  -20.2 °C 1008.7in /  34154.6hPa Calm     93% 0.0in /  0mm WeatherDisplay:10.37 W/m2 FEW
02:53 -3.5 °F /  -19.7 °C -4.4 °F /  -20.2 °C 1008.7in /  34154.6hPa Calm     93% 0.0in /  0mm WeatherDisplay:10.37 W/m2 FEW
02:58 -3.4 °F /  -19.7 °C -4.4 °F /  -20.2 °C 1008.7in /  34154.6hPa Calm     93% 0.0in /  0mm WeatherDisplay:10.37 W/m2 FEW
03:03 -3.4 °F /  -19.7 °C -4.4 °F /  -20.2 °C 1009.0in /  34164.7hPa Calm     93% 0.0in /  0mm WeatherDisplay:10.37 W/m2 FEW
03:08 -3.4 °F /  -19.7 °C -4.4 °F /  -20.2 °C 1009.0in /  34164.7hPa Calm     93% 0.0in /  0mm WeatherDisplay:10.37 W/m2 FEW
03:13 -3.4 °F /  -19.7 °C -4.4 °F /  -20.2 °C 1009.0in /  34164.7hPa Calm     93% 0.0in /  0mm WeatherDisplay:10.37 W/m2 FEW
03:18 -3.4 °F /  -19.7 °C -4.3 °F /  -20.2 °C 1009.0in /  34164.7hPa Calm     93% 0.0in /  0mm WeatherDisplay:10.37 W/m2 FEW
03:23 -3.4 °F /  -19.7 °C -4.3 °F /  -20.2 °C 1009.0in /  34164.7hPa Calm     93% 0.0in /  0mm WeatherDisplay:10.37 W/m2 FEW
03:28 -3.4 °F /  -19.7 °C -4.3 °F /  -20.2 °C 1009.0in /  34164.7hPa Calm     93% 0.0in /  0mm WeatherDisplay:10.37 W/m2 FEW
03:33 -3.4 °F /  -19.7 °C -4.3 °F /  -20.2 °C 1009.0in /  34164.7hPa Calm     93% 0.0in /  0mm WeatherDisplay:10.37 W/m2 FEW
03:38 -3.4 °F /  -19.7 °C -4.3 °F /  -20.2 °C 1009.0in /  34164.7hPa Calm     93% 0.0in /  0mm WeatherDisplay:10.37 W/m2 FEW
03:43 -3.4 °F /  -19.7 °C -4.3 °F /  -20.2 °C 1009.0in /  34164.7hPa Calm     93% 0.0in /  0mm WeatherDisplay:10.37 W/m2 FEW
03:48 -3.3 °F /  -19.6 °C -4.3 °F /  -20.2 °C 1009.0in /  34164.7hPa Calm     93% 0.0in /  0mm WeatherDisplay:10.37 W/m2 FEW
03:53 -3.3 °F /  -19.6 °C -4.3 °F /  -20.2 °C 1009.0in /  34164.7hPa Calm     93% 0.0in /  0mm WeatherDisplay:10.37 W/m2 FEW
03:58 -3.3 °F /  -19.6 °C -4.3 °F /  -20.2 °C 1009.0in /  34164.7hPa Calm     93% 0.0in /  0mm WeatherDisplay:10.37 W/m2 FEW
04:03 -3.3 °F /  -19.6 °C -4.3 °F /  -20.2 °C 1009.0in /  34164.7hPa Calm     93% 0.0in /  0mm WeatherDisplay:10.37 W/m2 FEW
04:08 -3.3 °F /  -19.6 °C -4.3 °F /  -20.2 °C 1009.4in /  34178.3hPa Calm     93% 0.0in /  0mm WeatherDisplay:10.37 W/m2 FEW
04:13 -3.3 °F /  -19.6 °C -4.2 °F /  -20.1 °C 1009.4in /  34178.3hPa Calm     93% 0.0in /  0mm WeatherDisplay:10.37 W/m2 FEW
04:18 -3.3 °F /  -19.6 °C -4.2 °F /  -20.1 °C 1009.4in /  34178.3hPa Calm     93% 0.0in /  0mm WeatherDisplay:10.37 W/m2 FEW
04:23 -3.3 °F /  -19.6 °C -4.2 °F /  -20.1 °C 1009.4in /  34178.3hPa Calm     93% 0.0in /  0mm WeatherDisplay:10.37 W/m2 FEW
04:28 -3.3 °F /  -19.6 °C -4.2 °F /  -20.1 °C 1009.4in /  34178.3hPa Calm     93% 0.0in /  0mm WeatherDisplay:10.37 W/m2 FEW
04:33 -3.3 °F /  -19.6 °C -4.2 °F /  -20.1 °C 1009.4in /  34178.3hPa Calm     93% 0.0in /  0mm WeatherDisplay:10.37 W/m2 FEW
04:38 -3.3 °F /  -19.6 °C -4.2 °F /  -20.1 °C 1009.4in /  34178.3hPa Calm     93% 0.0in /  0mm WeatherDisplay:10.37 W/m2 FEW
04:43 -3.3 °F /  -19.6 °C -4.2 °F /  -20.1 °C 1009.4in /  34178.3hPa Calm     93% 0.0in /  0mm WeatherDisplay:10.37 W/m2 FEW
04:48 -3.3 °F /  -19.6 °C -4.2 °F /  -20.1 °C 1009.4in /  34178.3hPa Calm     93% 0.0in /  0mm WeatherDisplay:10.37 W/m2 FEW
04:53 -3.3 °F /  -19.6 °C -4.2 °F /  -20.1 °C 1009.4in /  34178.3hPa Calm     93% 0.0in /  0mm WeatherDisplay:10.37 W/m2 FEW
04:58 -3.3 °F /  -19.6 °C -4.2 °F /  -20.1 °C 1009.0in /  34164.7hPa Calm     93% 0.0in /  0mm WeatherDisplay:10.37 W/m2 FEW
05:03 -3.3 °F /  -19.6 °C -4.3 °F /  -20.2 °C 1009.0in /  34164.7hPa Calm     93% 0.0in /  0mm WeatherDisplay:10.37 W/m2 FEW
05:08 -3.3 °F /  -19.6 °C -4.3 °F /  -20.2 °C 1009.4in /  34178.3hPa Calm     93% 0.0in /  0mm WeatherDisplay:10.37 W/m2 FEW
05:13 -3.3 °F /  -19.6 °C -4.3 °F /  -20.2 °C 1009.4in /  34178.3hPa Calm     93% 0.0in /  0mm WeatherDisplay:10.37 W/m2 FEW
05:18 -3.3 °F /  -19.6 °C -4.3 °F /  -20.2 °C 1009.4in /  34178.3hPa Calm     93% 0.0in /  0mm WeatherDisplay:10.37 W/m2 FEW
05:23 -3.3 °F /  -19.6 °C -4.3 °F /  -20.2 °C 1009.4in /  34178.3hPa Calm     93% 0.0in /  0mm WeatherDisplay:10.37 W/m2 FEW
05:28 -3.3 °F /  -19.6 °C -4.3 °F /  -20.2 °C 1009.4in /  34178.3hPa Calm     93% 0.0in /  0mm WeatherDisplay:10.37 W/m2 FEW
05:33 -3.3 °F /  -19.6 °C -4.3 °F /  -20.2 °C 1009.4in /  34178.3hPa Calm     93% 0.0in /  0mm WeatherDisplay:10.37 W/m2 FEW
05:38 -3.4 °F /  -19.7 °C -4.3 °F /  -20.2 °C 1009.0in /  34164.7hPa NE 0.2mph /  0.3km/h   93% 0.0in /  0mm WeatherDisplay:10.37 W/m2 FEW
05:43 -3.4 °F /  -19.7 °C -4.4 °F /  -20.2 °C 1009.0in /  34164.7hPa Calm     93% 0.0in /  0mm WeatherDisplay:10.37 W/m2 FEW
05:48 -3.5 °F /  -19.7 °C -4.4 °F /  -20.2 °C 1009.4in /  34178.3hPa Calm     93% 0.0in /  0mm WeatherDisplay:10.37 W/m2 FEW
05:53 -3.6 °F /  -19.8 °C -4.5 °F /  -20.3 °C 1009.4in /  34178.3hPa Calm     93% 0.0in /  0mm WeatherDisplay:10.37 W/m2 FEW
05:58 -3.6 °F /  -19.8 °C -4.6 °F /  -20.3 °C 1009.4in /  34178.3hPa Calm     93% 0.0in /  0mm WeatherDisplay:10.37 W/m2 FEW
06:03 -3.6 °F /  -19.8 °C -4.6 °F /  -20.3 °C 1009.4in /  34178.3hPa Calm     93% 0.0in /  0mm WeatherDisplay:10.37 W/m2 FEW
06:08 -3.7 °F /  -19.8 °C -4.6 °F /  -20.3 °C 1009.4in /  34178.3hPa Calm     93% 0.0in /  0mm WeatherDisplay:10.37 W/m2 FEW
06:13 -3.7 °F /  -19.8 °C -4.6 °F /  -20.3 °C 1009.4in /  34178.3hPa Calm     93% 0.0in /  0mm WeatherDisplay:10.37 W/m2 FEW
06:18 -3.7 °F /  -19.8 °C -4.6 °F /  -20.3 °C 1009.4in /  34178.3hPa Calm     93% 0.0in /  0mm WeatherDisplay:10.37 W/m2 FEW
06:23 -3.7 °F /  -19.8 °C -4.6 °F /  -20.3 °C 1009.4in /  34178.3hPa Calm     93% 0.0in /  0mm WeatherDisplay:10.37 W/m2 FEW
06:28 -3.7 °F /  -19.8 °C -4.7 °F /  -20.4 °C 1009.4in /  34178.3hPa Calm     93% 0.0in /  0mm WeatherDisplay:10.37 W/m2 FEW
06:33 -3.7 °F /  -19.8 °C -4.7 °F /  -20.4 °C 1009.4in /  34178.3hPa Calm     93% 0.0in /  0mm WeatherDisplay:10.37 W/m2 FEW
06:38 -3.8 °F /  -19.9 °C -4.7 °F /  -20.4 °C 1009.4in /  34178.3hPa Calm     93% 0.0in /  0mm WeatherDisplay:10.37 W/m2 FEW
06:43 -3.8 °F /  -19.9 °C -4.7 °F /  -20.4 °C 1009.4in /  34178.3hPa Calm     93% 0.0in /  0mm WeatherDisplay:10.37 W/m2 FEW
06:48 -3.8 °F /  -19.9 °C -4.7 °F /  -20.4 °C 1009.4in /  34178.3hPa Calm     93% 0.0in /  0mm WeatherDisplay:10.37 W/m2 FEW
06:53 -3.8 °F /  -19.9 °C -4.7 °F /  -20.4 °C 1009.4in /  34178.3hPa Calm     93% 0.0in /  0mm WeatherDisplay:10.37 W/m2 FEW
06:58 -3.8 °F /  -19.9 °C -4.7 °F /  -20.4 °C 1009.4in /  34178.3hPa Calm     93% 0.0in /  0mm WeatherDisplay:10.37 W/m2 FEW
07:03 -3.8 °F /  -19.9 °C -4.8 °F /  -20.4 °C 1009.4in /  34178.3hPa Calm     93% 0.0in /  0mm WeatherDisplay:10.37 W/m2 FEW
07:08 -3.8 °F /  -19.9 °C -4.8 °F /  -20.4 °C 1009.4in /  34178.3hPa Calm     93% 0.0in /  0mm WeatherDisplay:10.37 W/m2 FEW
07:13 -3.8 °F /  -19.9 °C -4.8 °F /  -20.4 °C 1009.4in /  34178.3hPa Calm     93% 0.0in /  0mm WeatherDisplay:10.37 W/m2 FEW
07:18 -3.8 °F /  -19.9 °C -4.8 °F /  -20.4 °C 1009.4in /  34178.3hPa Calm     93% 0.0in /  0mm WeatherDisplay:10.37 W/m2 FEW
07:23 -3.9 °F /  -19.9 °C -4.8 °F /  -20.4 °C 1009.4in /  34178.3hPa Calm     93% 0.0in /  0mm WeatherDisplay:10.37 W/m2 FEW
07:28 -3.9 °F /  -19.9 °C -4.9 °F /  -20.5 °C 1009.4in /  34178.3hPa Calm     93% 0.0in /  0mm WeatherDisplay:10.37 W/m2 FEW
07:33 -4.0 °F /  -20 °C -5.1 °F /  -20.6 °C 1009.4in /  34178.3hPa Calm     92% 0.0in /  0mm WeatherDisplay:10.37 W/m2 FEW
07:38 -4.1 °F /  -20.1 °C -5.2 °F /  -20.7 °C 1009.4in /  34178.3hPa Calm     92% 0.0in /  0mm WeatherDisplay:10.37 W/m2 FEW
07:43 -4.3 °F /  -20.2 °C -5.4 °F /  -20.8 °C 1009.4in /  34178.3hPa Calm     92% 0.0in /  0mm WeatherDisplay:10.37 W/m2 FEW
07:48 -4.4 °F /  -20.2 °C -5.6 °F /  -20.9 °C 1009.4in /  34178.3hPa Calm     92% 0.0in /  0mm WeatherDisplay:10.37 W/m2 FEW
07:53 -4.6 °F /  -20.3 °C -5.7 °F /  -20.9 °C 1009.4in /  34178.3hPa Calm     92% 0.0in /  0mm WeatherDisplay:10.37 W/m2 FEW
07:58 -4.7 °F /  -20.4 °C -5.8 °F /  -21 °C 1009.4in /  34178.3hPa Calm     92% 0.0in /  0mm WeatherDisplay:10.37 W/m2 FEW
08:03 -4.9 °F /  -20.5 °C -6.0 °F /  -21.1 °C 1009.4in /  34178.3hPa Calm     92% 0.0in /  0mm WeatherDisplay:10.37 W/m2 FEW
08:08 -5.0 °F /  -20.6 °C -6.1 °F /  -21.2 °C 1009.4in /  34178.3hPa Calm     92% 0.0in /  0mm WeatherDisplay:10.37 W/m2 FEW
08:13 -5.1 °F /  -20.6 °C -6.2 °F /  -21.2 °C 1009.7in /  34188.4hPa Calm     92% 0.0in /  0mm WeatherDisplay:10.37 W/m2 FEW
08:18 -5.2 °F /  -20.7 °C -6.3 °F /  -21.3 °C 1009.7in /  34188.4hPa Calm     92% 0.0in /  0mm WeatherDisplay:10.37 W/m2 FEW
08:23 -5.2 °F /  -20.7 °C -6.3 °F /  -21.3 °C 1009.7in /  34188.4hPa Calm     92% 0.0in /  0mm WeatherDisplay:10.37 W/m2 FEW
08:28 -5.3 °F /  -20.7 °C -6.4 °F /  -21.3 °C 1009.7in /  34188.4hPa Calm     92% 0.0in /  0mm WeatherDisplay:10.37 W/m2 FEW
08:33 -5.4 °F /  -20.8 °C -6.5 °F /  -21.4 °C 1009.7in /  34188.4hPa Calm     92% 0.0in /  0mm WeatherDisplay:10.37 W/m2 FEW
08:38 -5.5 °F /  -20.8 °C -6.6 °F /  -21.4 °C 1009.7in /  34188.4hPa Calm     92% 0.0in /  0mm WeatherDisplay:10.37 W/m2 FEW
08:43 -5.6 °F /  -20.9 °C -6.7 °F /  -21.5 °C 1009.7in /  34188.4hPa Calm     92% 0.0in /  0mm WeatherDisplay:10.37 W/m2 FEW
08:48 -5.7 °F /  -20.9 °C -6.8 °F /  -21.6 °C 1009.7in /  34188.4hPa Calm     92% 0.0in /  0mm WeatherDisplay:10.37 W/m2 FEW
08:53 -5.8 °F /  -21 °C -6.9 °F /  -21.6 °C 1009.7in /  34188.4hPa Calm     92% 0.0in /  0mm WeatherDisplay:10.37 W/m2 FEW
08:58 -5.9 °F /  -21.1 °C -7.0 °F /  -21.7 °C 1009.7in /  34188.4hPa Calm     92% 0.0in /  0mm WeatherDisplay:10.37 W/m2 FEW
09:03 -6.1 °F /  -21.2 °C -7.2 °F /  -21.8 °C 1009.7in /  34188.4hPa Calm     92% 0.0in /  0mm WeatherDisplay:10.37 W/m2 FEW
09:08 -6.2 °F /  -21.2 °C -7.3 °F /  -21.8 °C 1009.7in /  34188.4hPa Calm     92% 0.0in /  0mm WeatherDisplay:10.37 W/m2 FEW
09:13 -6.3 °F /  -21.3 °C -7.4 °F /  -21.9 °C 1009.7in /  34188.4hPa Calm     92% 0.0in /  0mm WeatherDisplay:10.37 W/m2 FEW
09:18 -6.5 °F /  -21.4 °C -7.6 °F /  -22 °C 1010.0in /  34198.6hPa Calm     92% 0.0in /  0mm WeatherDisplay:10.37 W/m2 FEW
09:23 -6.7 °F /  -21.5 °C -7.7 °F /  -22.1 °C 1009.7in /  34188.4hPa Calm     92% 0.0in /  0mm WeatherDisplay:10.37 W/m2 FEW
09:28 -6.8 °F /  -21.6 °C -7.8 °F /  -22.1 °C 1009.7in /  34188.4hPa Calm     92% 0.0in /  0mm WeatherDisplay:10.37 W/m2 FEW
09:33 -6.9 °F /  -21.6 °C -8.1 °F /  -22.3 °C 1009.7in /  34188.4hPa Calm     91% 0.0in /  0mm WeatherDisplay:10.37 W/m2 FEW
09:38 -6.9 °F /  -21.6 °C -8.0 °F /  -22.2 °C 1010.0in /  34198.6hPa Calm     92% 0.0in /  0mm WeatherDisplay:10.37 W/m2 FEW
09:43 -7.0 °F /  -21.7 °C -8.1 °F /  -22.3 °C 1010.0in /  34198.6hPa Calm     92% 0.0in /  0mm WeatherDisplay:10.37 W/m2 FEW
09:48 -6.9 °F /  -21.6 °C -8.0 °F /  -22.2 °C 1010.0in /  34198.6hPa Calm     92% 0.0in /  0mm WeatherDisplay:10.37 W/m2 FEW
09:53 -6.9 °F /  -21.6 °C -8.0 °F /  -22.2 °C 1010.0in /  34198.6hPa Calm     92% 0.0in /  0mm WeatherDisplay:10.37 W/m2 FEW
09:58 -6.9 °F /  -21.6 °C -8.0 °F /  -22.2 °C 1010.0in /  34198.6hPa Calm     92% 0.0in /  0mm WeatherDisplay:10.37 W/m2 FEW
10:03 -6.9 °F /  -21.6 °C -8.0 °F /  -22.2 °C 1010.0in /  34198.6hPa Calm     92% 0.0in /  0mm WeatherDisplay:10.37 W/m2 FEW
10:08 -6.9 °F /  -21.6 °C -7.9 °F /  -22.2 °C 1010.0in /  34198.6hPa Calm     92% 0.0in /  0mm WeatherDisplay:10.37 W/m2 FEW
10:13 -6.8 °F /  -21.6 °C -7.8 °F /  -22.1 °C 1010.0in /  34198.6hPa Calm     92% 0.0in /  0mm WeatherDisplay:10.37 W/m2 FEW
10:18 -6.7 °F /  -21.5 °C -7.8 °F /  -22.1 °C 1010.0in /  34198.6hPa Calm     92% 0.0in /  0mm WeatherDisplay:10.37 W/m2 FEW
10:23 -6.7 °F /  -21.5 °C -7.6 °F /  -22 °C 1010.0in /  34198.6hPa Calm     93% 0.0in /  0mm WeatherDisplay:10.37 W/m2 FEW
10:28 -6.6 °F /  -21.4 °C -7.6 °F /  -22 °C 1010.0in /  34198.6hPa Calm     93% 0.0in /  0mm WeatherDisplay:10.37 W/m2 FEW
10:33 -6.4 °F /  -21.3 °C -7.4 °F /  -21.9 °C 1010.0in /  34198.6hPa Calm     93% 0.0in /  0mm WeatherDisplay:10.37 W/m2 FEW
10:38 -6.3 °F /  -21.3 °C -7.3 °F /  -21.8 °C 1010.0in /  34198.6hPa Calm     93% 0.0in /  0mm WeatherDisplay:10.37 W/m2 FEW
10:43 -6.3 °F /  -21.3 °C -7.2 °F /  -21.8 °C 1010.0in /  34198.6hPa Calm     93% 0.0in /  0mm WeatherDisplay:10.37 W/m2 FEW
10:48 -6.2 °F /  -21.2 °C -7.1 °F /  -21.7 °C 1010.0in /  34198.6hPa Calm     93% 0.0in /  0mm WeatherDisplay:10.37 W/m2 FEW
10:53 -6.1 °F /  -21.2 °C -7.1 °F /  -21.7 °C 1010.0in /  34198.6hPa Calm     93% 0.0in /  0mm WeatherDisplay:10.37 W/m2 FEW
10:58 -6.1 °F /  -21.2 °C -7.0 °F /  -21.7 °C 1010.0in /  34198.6hPa Calm     93% 0.0in /  0mm WeatherDisplay:10.37 W/m2 FEW
11:03 -6.0 °F /  -21.1 °C -6.9 °F /  -21.6 °C 1010.0in /  34198.6hPa Calm     93% 0.0in /  0mm WeatherDisplay:10.37 W/m2 FEW
11:08 -5.9 °F /  -21.1 °C -6.9 °F /  -21.6 °C 1010.0in /  34198.6hPa Calm     93% 0.0in /  0mm WeatherDisplay:10.37 W/m2 FEW
11:13 -5.8 °F /  -21 °C -6.8 °F /  -21.6 °C 1010.0in /  34198.6hPa Calm     93% 0.0in /  0mm WeatherDisplay:10.37 W/m2 FEW
11:18 -5.8 °F /  -21 °C -6.7 °F /  -21.5 °C 1010.0in /  34198.6hPa Calm     93% 0.0in /  0mm WeatherDisplay:10.37 W/m2 FEW
11:23 -5.7 °F /  -20.9 °C -6.7 °F /  -21.5 °C 1010.0in /  34198.6hPa Calm     93% 0.0in /  0mm WeatherDisplay:10.37 W/m2 FEW
11:28 -5.7 °F /  -20.9 °C -6.6 °F /  -21.4 °C 1010.0in /  34198.6hPa Calm     93% 0.0in /  0mm WeatherDisplay:10.37 W/m2 FEW
11:33 -5.6 °F /  -20.9 °C -6.5 °F /  -21.4 °C 1010.0in /  34198.6hPa Calm     93% 0.0in /  0mm WeatherDisplay:10.37 W/m2 FEW
11:38 -5.4 °F /  -20.8 °C -6.3 °F /  -21.3 °C 1010.0in /  34198.6hPa Calm     93% 0.0in /  0mm WeatherDisplay:10.37 W/m2 FEW
11:43 -5.2 °F /  -20.7 °C -6.2 °F /  -21.2 °C 1010.0in /  34198.6hPa Calm     93% 0.0in /  0mm WeatherDisplay:10.37 W/m2 FEW
11:48 -5.0 °F /  -20.6 °C -5.8 °F /  -21 °C 1010.0in /  34198.6hPa Calm     94% 0.0in /  0mm WeatherDisplay:10.37 W/m2 FEW
11:53 -4.8 °F /  -20.4 °C -5.6 °F /  -20.9 °C 1010.0in /  34198.6hPa Calm     94% 0.0in /  0mm WeatherDisplay:10.37 W/m2 FEW
11:58 -4.7 °F /  -20.4 °C -5.5 °F /  -20.8 °C 1010.0in /  34198.6hPa Calm     94% 0.0in /  0mm WeatherDisplay:10.37 W/m2 FEW
12:03 -4.5 °F /  -20.3 °C -5.4 °F /  -20.8 °C 1010.0in /  34198.6hPa Calm     93% 0.0in /  0mm WeatherDisplay:10.37 W/m2 FEW
12:08 -4.3 °F /  -20.2 °C -5.2 °F /  -20.7 °C 1010.0in /  34198.6hPa Calm     93% 0.0in /  0mm WeatherDisplay:10.37 W/m2 FEW
12:13 -4.1 °F /  -20.1 °C -4.9 °F /  -20.5 °C 1010.0in /  34198.6hPa Calm     94% 0.0in /  0mm WeatherDisplay:10.37 W/m2 FEW
12:18 -4.0 °F /  -20 °C -4.9 °F /  -20.5 °C 1010.0in /  34198.6hPa Calm   1.9mph /  3.1km/h 93% 0.0in /  0mm WeatherDisplay:10.37 W/m2 FEW
12:23 -3.9 °F /  -19.9 °C -4.9 °F /  -20.5 °C 1010.0in /  34198.6hPa Calm     93% 0.0in /  0mm WeatherDisplay:10.37 W/m2 FEW
12:28 -3.9 °F /  -19.9 °C -4.8 °F /  -20.4 °C 1010.0in /  34198.6hPa Calm     93% 0.0in /  0mm WeatherDisplay:10.37 W/m2 FEW
12:33 -3.8 °F /  -19.9 °C -4.7 °F /  -20.4 °C 1010.0in /  34198.6hPa Calm     93% 0.0in /  0mm WeatherDisplay:10.37 W/m2 FEW
12:38 -3.7 °F /  -19.8 °C -4.7 °F /  -20.4 °C 1010.0in /  34198.6hPa NE 1.1mph /  1.8km/h 3.2mph /  5.1km/h 93% 0.0in /  0mm WeatherDisplay:10.37 W/m2 FEW
12:43 -3.7 °F /  -19.8 °C -4.7 °F /  -20.4 °C 1010.0in /  34198.6hPa NE 1.1mph /  1.8km/h 1.9mph /  3.1km/h 93% 0.0in /  0mm WeatherDisplay:10.37 W/m2 FEW
12:48 -3.7 °F /  -19.8 °C -4.8 °F /  -20.4 °C 1009.7in /  34188.4hPa Calm     92% 0.0in /  0mm WeatherDisplay:10.37 W/m2 FEW
12:53 -3.7 °F /  -19.8 °C -4.8 °F /  -20.4 °C 1010.0in /  34198.6hPa NE 1.8mph /  2.9km/h 1.8mph /  2.9km/h 92% 0.0in /  0mm WeatherDisplay:10.37 W/m2 FEW
12:58 -3.7 °F /  -19.8 °C -4.8 °F /  -20.4 °C 1010.0in /  34198.6hPa Calm     92% 0.0in /  0mm WeatherDisplay:10.37 W/m2 FEW
13:03 -3.7 °F /  -19.8 °C -4.8 °F /  -20.4 °C 1010.0in /  34198.6hPa Calm     92% 0.0in /  0mm WeatherDisplay:10.37 W/m2 FEW
13:08 -3.6 °F /  -19.8 °C -4.7 °F /  -20.4 °C 1009.7in /  34188.4hPa Calm     92% 0.0in /  0mm WeatherDisplay:10.37 W/m2 FEW
13:13 -3.6 °F /  -19.8 °C -4.7 °F /  -20.4 °C 1009.7in /  34188.4hPa NE 0.3mph /  0.5km/h 5.6mph /  9km/h 92% 0.0in /  0mm WeatherDisplay:10.37 W/m2 FEW
13:18 -3.6 °F /  -19.8 °C -4.7 °F /  -20.4 °C 1009.7in /  34188.4hPa Calm   5.6mph /  9km/h 92% 0.0in /  0mm WeatherDisplay:10.37 W/m2 FEW
13:23 -3.6 °F /  -19.8 °C -4.7 °F /  -20.4 °C 1009.7in /  34188.4hPa Calm   3.7mph /  6km/h 92% 0.0in /  0mm WeatherDisplay:10.37 W/m2 FEW
13:28 -3.6 °F /  -19.8 °C -4.7 °F /  -20.4 °C 1009.7in /  34188.4hPa NE 0.6mph /  1km/h   92% 0.0in /  0mm WeatherDisplay:10.37 W/m2 FEW
13:33 -3.6 °F /  -19.8 °C -4.7 °F /  -20.4 °C 1009.7in /  34188.4hPa Calm   5.6mph /  9km/h 92% 0.0in /  0mm WeatherDisplay:10.37 W/m2 FEW
13:38 -3.5 °F /  -19.7 °C -4.6 °F /  -20.3 °C 1009.7in /  34188.4hPa Calm     92% 0.0in /  0mm WeatherDisplay:10.37 W/m2 FEW
13:43 -3.4 °F /  -19.7 °C -4.6 °F /  -20.3 °C 1009.4in /  34178.3hPa Calm     92% 0.0in /  0mm WeatherDisplay:10.37 W/m2 FEW
13:48 -3.4 °F /  -19.7 °C -4.5 °F /  -20.3 °C 1009.7in /  34188.4hPa Calm     92% 0.0in /  0mm WeatherDisplay:10.37 W/m2 FEW
13:53 -3.3 °F /  -19.6 °C -4.4 °F /  -20.2 °C 1009.4in /  34178.3hPa NE 1.3mph /  2.1km/h 4.8mph /  7.7km/h 92% 0.0in /  0mm WeatherDisplay:10.37 W/m2 FEW
13:58 -3.2 °F /  -19.6 °C -4.3 °F /  -20.2 °C 1009.4in /  34178.3hPa Calm   5.6mph /  9km/h 92% 0.0in /  0mm WeatherDisplay:10.37 W/m2 FEW
14:03 -3.2 °F /  -19.6 °C -4.3 °F /  -20.2 °C 1009.7in /  34188.4hPa Calm     92% 0.0in /  0mm WeatherDisplay:10.37 W/m2 FEW
14:08 -3.2 °F /  -19.6 °C -4.4 °F /  -20.2 °C 1009.4in /  34178.3hPa Calm     91% 0.0in /  0mm WeatherDisplay:10.37 W/m2 FEW
14:13 -3.2 °F /  -19.6 °C -4.5 °F /  -20.3 °C 1009.7in /  34188.4hPa Calm     91% 0.0in /  0mm WeatherDisplay:10.37 W/m2 FEW
14:18 -3.3 °F /  -19.6 °C -4.6 °F /  -20.3 °C 1009.7in /  34188.4hPa Calm     91% 0.0in /  0mm WeatherDisplay:10.37 W/m2 FEW
14:23 -3.3 °F /  -19.6 °C -4.6 °F /  -20.3 °C 1009.7in /  34188.4hPa Calm     91% 0.0in /  0mm WeatherDisplay:10.37 W/m2 FEW
14:28 -3.4 °F /  -19.7 °C -4.7 °F /  -20.4 °C 1009.4in /  34178.3hPa Calm     91% 0.0in /  0mm WeatherDisplay:10.37 W/m2 FEW
14:33 -3.5 °F /  -19.7 °C -4.8 °F /  -20.4 °C 1009.4in /  34178.3hPa Calm     91% 0.0in /  0mm WeatherDisplay:10.37 W/m2 FEW
14:38 -3.6 °F /  -19.8 °C -4.8 °F /  -20.4 °C 1009.4in /  34178.3hPa Calm     91% 0.0in /  0mm WeatherDisplay:10.37 W/m2 FEW
14:43 -3.6 °F /  -19.8 °C -4.8 °F /  -20.4 °C 1009.4in /  34178.3hPa Calm     91% 0.0in /  0mm WeatherDisplay:10.37 W/m2 FEW
14:48 -3.6 °F /  -19.8 °C -4.8 °F /  -20.4 °C 1009.4in /  34178.3hPa Calm     91% 0.0in /  0mm WeatherDisplay:10.37 W/m2 FEW
14:53 -3.6 °F /  -19.8 °C -4.7 °F /  -20.4 °C 1009.4in /  34178.3hPa Calm     92% 0.0in /  0mm WeatherDisplay:10.37 W/m2 FEW
14:58 -3.6 °F /  -19.8 °C -4.7 °F /  -20.4 °C 1009.0in /  34164.7hPa Calm     92% 0.0in /  0mm WeatherDisplay:10.37 W/m2 FEW
15:03 -3.7 °F /  -19.8 °C -4.8 °F /  -20.4 °C 1009.0in /  34164.7hPa Calm     92% 0.0in /  0mm WeatherDisplay:10.37 W/m2 FEW
15:08 -3.7 °F /  -19.8 °C -4.8 °F /  -20.4 °C 1009.0in /  34164.7hPa Calm     92% 0.0in /  0mm WeatherDisplay:10.37 W/m2 FEW
15:13 -3.7 °F /  -19.8 °C -5.0 °F /  -20.6 °C 1009.0in /  34164.7hPa Calm     91% 0.0in /  0mm WeatherDisplay:10.37 W/m2 FEW
15:18 -3.8 °F /  -19.9 °C -5.1 °F /  -20.6 °C 1008.7in /  34154.6hPa Calm     91% 0.0in /  0mm WeatherDisplay:10.37 W/m2 FEW
15:23 -3.8 °F /  -19.9 °C -4.9 °F /  -20.5 °C 1008.7in /  34154.6hPa Calm     92% 0.0in /  0mm WeatherDisplay:10.37 W/m2 FEW
15:28 -3.8 °F /  -19.9 °C -4.9 °F /  -20.5 °C 1008.7in /  34154.6hPa Calm     92% 0.0in /  0mm WeatherDisplay:10.37 W/m2 FEW
15:33 -3.9 °F /  -19.9 °C -5.1 °F /  -20.6 °C 1008.7in /  34154.6hPa Calm     92% 0.0in /  0mm WeatherDisplay:10.37 W/m2 FEW
15:38 -4.0 °F /  -20 °C -5.1 °F /  -20.6 °C 1008.7in /  34154.6hPa Calm     92% 0.0in /  0mm WeatherDisplay:10.37 W/m2 FEW
15:43 -4.1 °F /  -20.1 °C -5.2 °F /  -20.7 °C 1008.7in /  34154.6hPa Calm     92% 0.0in /  0mm WeatherDisplay:10.37 W/m2 FEW
15:48 -4.2 °F /  -20.1 °C -5.3 °F /  -20.7 °C 1008.4in /  34144.4hPa Calm     92% 0.0in /  0mm WeatherDisplay:10.37 W/m2 FEW
15:53 -4.2 °F /  -20.1 °C -5.3 °F /  -20.7 °C 1008.4in /  34144.4hPa Calm     92% 0.0in /  0mm WeatherDisplay:10.37 W/m2 FEW
15:58 -4.3 °F /  -20.2 °C -5.4 °F /  -20.8 °C 1008.4in /  34144.4hPa Calm     92% 0.0in /  0mm WeatherDisplay:10.37 W/m2 FEW
16:03 -4.2 °F /  -20.1 °C -5.3 °F /  -20.7 °C 1008.4in /  34144.4hPa Calm     92% 0.0in /  0mm WeatherDisplay:10.37 W/m2 FEW
16:08 -4.1 °F /  -20.1 °C -5.1 °F /  -20.6 °C 1008.4in /  34144.4hPa Calm   1.9mph /  3.1km/h 93% 0.0in /  0mm WeatherDisplay:10.37 W/m2 FEW
16:13 -4.1 °F /  -20.1 °C -5.0 °F /  -20.6 °C 1008.4in /  34144.4hPa Calm     93% 0.0in /  0mm WeatherDisplay:10.37 W/m2 FEW
16:18 -3.9 °F /  -19.9 °C -4.9 °F /  -20.5 °C 1008.4in /  34144.4hPa Calm     93% 0.0in /  0mm WeatherDisplay:10.37 W/m2 FEW
16:23 -3.9 °F /  -19.9 °C -4.9 °F /  -20.5 °C 1008.4in /  34144.4hPa Calm     93% 0.0in /  0mm WeatherDisplay:10.37 W/m2 FEW
16:28 -3.9 °F /  -19.9 °C -4.9 °F /  -20.5 °C 1008.4in /  34144.4hPa Calm     93% 0.0in /  0mm WeatherDisplay:10.37 W/m2 FEW
16:33 -3.9 °F /  -19.9 °C -4.8 °F /  -20.4 °C 1008.4in /  34144.4hPa Calm     93% 0.0in /  0mm WeatherDisplay:10.37 W/m2 FEW
16:38 -3.8 °F /  -19.9 °C -4.8 °F /  -20.4 °C 1008.0in /  34130.9hPa Calm   1.9mph /  3.1km/h 93% 0.0in /  0mm WeatherDisplay:10.37 W/m2 FEW
16:43 -3.8 °F /  -19.9 °C -4.7 °F /  -20.4 °C 1008.0in /  34130.9hPa Calm   3.7mph /  6km/h 93% 0.0in /  0mm WeatherDisplay:10.37 W/m2 FEW
16:48 -3.7 °F /  -19.8 °C -4.7 °F /  -20.4 °C 1008.0in /  34130.9hPa Calm     93% 0.0in /  0mm WeatherDisplay:10.37 W/m2 FEW
16:53 -3.8 °F /  -19.9 °C -4.7 °F /  -20.4 °C 1008.0in /  34130.9hPa Calm     93% 0.0in /  0mm WeatherDisplay:10.37 W/m2 FEW
16:58 -3.8 °F /  -19.9 °C -4.7 °F /  -20.4 °C 1008.0in /  34130.9hPa Calm     93% 0.0in /  0mm WeatherDisplay:10.37 W/m2 FEW
17:03 -3.8 °F /  -19.9 °C -4.8 °F /  -20.4 °C 1008.0in /  34130.9hPa Calm     93% 0.0in /  0mm WeatherDisplay:10.37 W/m2 FEW
17:08 -3.8 °F /  -19.9 °C -4.8 °F /  -20.4 °C 1008.0in /  34130.9hPa Calm     93% 0.0in /  0mm WeatherDisplay:10.37 W/m2 FEW
17:13 -3.8 °F /  -19.9 °C -4.8 °F /  -20.4 °C 1007.7in /  34120.7hPa Calm     93% 0.0in /  0mm WeatherDisplay:10.37 W/m2 FEW
17:18 -3.8 °F /  -19.9 °C -4.8 °F /  -20.4 °C 1007.7in /  34120.7hPa Calm     93% 0.0in /  0mm WeatherDisplay:10.37 W/m2 FEW
17:23 -3.8 °F /  -19.9 °C -4.8 °F /  -20.4 °C 1007.7in /  34120.7hPa Calm     93% 0.0in /  0mm WeatherDisplay:10.37 W/m2 FEW
17:28 -3.9 °F /  -19.9 °C -4.8 °F /  -20.4 °C 1007.7in /  34120.7hPa Calm     93% 0.0in /  0mm WeatherDisplay:10.37 W/m2 FEW
17:33 -3.9 °F /  -19.9 °C -4.8 °F /  -20.4 °C 1007.7in /  34120.7hPa Calm     93% 0.0in /  0mm WeatherDisplay:10.37 W/m2 FEW
17:38 -3.9 °F /  -19.9 °C -4.9 °F /  -20.5 °C 1007.7in /  34120.7hPa NE 0.5mph /  0.8km/h 3.7mph /  6km/h 93% 0.0in /  0mm WeatherDisplay:10.37 W/m2 FEW
17:43 -3.9 °F /  -19.9 °C -4.9 °F /  -20.5 °C 1007.7in /  34120.7hPa NE 1.9mph /  3.1km/h 5.6mph /  9km/h 93% 0.0in /  0mm WeatherDisplay:10.37 W/m2 FEW
17:48 -3.9 °F /  -19.9 °C -5.1 °F /  -20.6 °C 1007.7in /  34120.7hPa Calm     92% 0.0in /  0mm WeatherDisplay:10.37 W/m2 FEW
17:53 -4.0 °F /  -20 °C -5.1 °F /  -20.6 °C 1007.7in /  34120.7hPa Calm     92% 0.0in /  0mm WeatherDisplay:10.37 W/m2 FEW
17:58 -4.1 °F /  -20.1 °C -5.2 °F /  -20.7 °C 1007.7in /  34120.7hPa Calm     92% 0.0in /  0mm WeatherDisplay:10.37 W/m2 FEW
18:03 -4.2 °F /  -20.1 °C -5.3 °F /  -20.7 °C 1007.3in /  34107.2hPa Calm     92% 0.0in /  0mm WeatherDisplay:10.37 W/m2 FEW
18:08 -4.2 °F /  -20.1 °C -5.3 °F /  -20.7 °C 1007.3in /  34107.2hPa NE 0.5mph /  0.8km/h 3.7mph /  6km/h 92% 0.0in /  0mm WeatherDisplay:10.37 W/m2 FEW
18:13 -4.4 °F /  -20.2 °C -5.5 °F /  -20.8 °C 1007.0in /  34097hPa Calm     92% 0.0in /  0mm WeatherDisplay:10.37 W/m2 FEW
18:18 -4.4 °F /  -20.2 °C -5.6 °F /  -20.9 °C 1007.3in /  34107.2hPa Calm     92% 0.0in /  0mm WeatherDisplay:10.37 W/m2 FEW
18:23 -4.4 °F /  -20.2 °C -5.6 °F /  -20.9 °C 1007.3in /  34107.2hPa Calm     92% 0.0in /  0mm WeatherDisplay:10.37 W/m2 FEW
18:28 -4.6 °F /  -20.3 °C -5.7 °F /  -20.9 °C 1007.3in /  34107.2hPa Calm     92% 0.0in /  0mm WeatherDisplay:10.37 W/m2 FEW
18:33 -4.6 °F /  -20.3 °C -5.7 °F /  -20.9 °C 1007.3in /  34107.2hPa Calm     92% 0.0in /  0mm WeatherDisplay:10.37 W/m2 FEW
18:38 -4.7 °F /  -20.4 °C -5.8 °F /  -21 °C 1007.3in /  34107.2hPa Calm     92% 0.0in /  0mm WeatherDisplay:10.37 W/m2 FEW
18:43 -4.7 °F /  -20.4 °C -5.8 °F /  -21 °C 1007.3in /  34107.2hPa Calm     92% 0.0in /  0mm WeatherDisplay:10.37 W/m2 FEW
18:48 -4.8 °F /  -20.4 °C -5.9 °F /  -21.1 °C 1007.3in /  34107.2hPa Calm     92% 0.0in /  0mm WeatherDisplay:10.37 W/m2 FEW
18:53 -4.8 °F /  -20.4 °C -5.9 °F /  -21.1 °C 1007.3in /  34107.2hPa Calm     92% 0.0in /  0mm WeatherDisplay:10.37 W/m2 FEW
18:58 -4.8 °F /  -20.4 °C -5.8 °F /  -21 °C 1007.3in /  34107.2hPa Calm     93% 0.0in /  0mm WeatherDisplay:10.37 W/m2 FEW
19:03 -4.9 °F /  -20.5 °C -5.8 °F /  -21 °C 1007.3in /  34107.2hPa Calm     93% 0.0in /  0mm WeatherDisplay:10.37 W/m2 FEW
19:08 -4.9 °F /  -20.5 °C -5.9 °F /  -21.1 °C 1007.3in /  34107.2hPa Calm     93% 0.0in /  0mm WeatherDisplay:10.37 W/m2 FEW
19:13 -4.9 °F /  -20.5 °C -6.1 °F /  -21.2 °C 1007.3in /  34107.2hPa Calm     92% 0.0in /  0mm WeatherDisplay:10.37 W/m2 FEW
19:18 -4.9 °F /  -20.5 °C -5.8 °F /  -21 °C 1007.3in /  34107.2hPa Calm     93% 0.0in /  0mm WeatherDisplay:10.37 W/m2 FEW
19:23 -4.8 °F /  -20.4 °C -5.8 °F /  -21 °C 1007.0in /  34097hPa Calm     93% 0.0in /  0mm WeatherDisplay:10.37 W/m2 FEW
19:28 -4.7 °F /  -20.4 °C -5.7 °F /  -20.9 °C 1007.0in /  34097hPa Calm     93% 0.0in /  0mm WeatherDisplay:10.37 W/m2 FEW
19:33 -4.7 °F /  -20.4 °C -5.6 °F /  -20.9 °C 1006.7in /  34086.9hPa Calm     93% 0.0in /  0mm WeatherDisplay:10.37 W/m2 FEW
19:38 -4.5 °F /  -20.3 °C -5.4 °F /  -20.8 °C 1006.7in /  34086.9hPa NE 0.5mph /  0.8km/h   93% 0.0in /  0mm WeatherDisplay:10.37 W/m2 FEW
19:43 -4.3 °F /  -20.2 °C -5.3 °F /  -20.7 °C 1007.0in /  34097hPa NE 0.3mph /  0.5km/h 3.7mph /  6km/h 93% 0.0in /  0mm WeatherDisplay:10.37 W/m2 FEW
19:48 -4.2 °F /  -20.1 °C -5.1 °F /  -20.6 °C 1006.7in /  34086.9hPa NE 2.7mph /  4.3km/h 7.4mph /  11.9km/h 93% 0.0in /  0mm WeatherDisplay:10.37 W/m2 FEW
19:53 -3.9 °F /  -19.9 °C -4.9 °F /  -20.5 °C 1006.7in /  34086.9hPa NE 3.1mph /  5km/h 5.6mph /  9km/h 93% 0.0in /  0mm WeatherDisplay:10.37 W/m2 FEW
19:58 -3.8 °F /  -19.9 °C -4.7 °F /  -20.4 °C 1006.7in /  34086.9hPa ENE 1.1mph /  1.8km/h 5.6mph /  9km/h 93% 0.0in /  0mm WeatherDisplay:10.37 W/m2 FEW
20:03 -3.6 °F /  -19.8 °C -4.6 °F /  -20.3 °C 1006.7in /  34086.9hPa ENE 1.4mph /  2.3km/h 5.6mph /  9km/h 93% 0.0in /  0mm WeatherDisplay:10.37 W/m2 FEW
20:08 -3.5 °F /  -19.7 °C -4.4 °F /  -20.2 °C 1006.3in /  34073.3hPa ENE 1.4mph /  2.3km/h 6.4mph /  10.3km/h 93% 0.0in /  0mm WeatherDisplay:10.37 W/m2 FEW
20:13 -3.4 °F /  -19.7 °C -4.4 °F /  -20.2 °C 1006.3in /  34073.3hPa ENE 2.7mph /  4.3km/h 5.6mph /  9km/h 93% 0.0in /  0mm WeatherDisplay:10.37 W/m2 FEW
20:18 -3.3 °F /  -19.6 °C -4.2 °F /  -20.1 °C 1006.3in /  34073.3hPa SE 4.7mph /  7.6km/h 5.6mph /  9km/h 93% 0.0in /  0mm WeatherDisplay:10.37 W/m2 FEW
20:23 -3.2 °F /  -19.6 °C -4.3 °F /  -20.2 °C 1006.3in /  34073.3hPa SE 3.1mph /  5km/h 5.6mph /  9km/h 92% 0.0in /  0mm WeatherDisplay:10.37 W/m2 FEW
20:28 -3.1 °F /  -19.5 °C -4.2 °F /  -20.1 °C 1006.3in /  34073.3hPa ESE 1.9mph /  3.1km/h 6.4mph /  10.3km/h 92% 0.0in /  0mm WeatherDisplay:10.37 W/m2 FEW
20:33 -2.9 °F /  -19.4 °C -4.1 °F /  -20.1 °C 1006.0in /  34063.2hPa SE 3.9mph /  6.3km/h 11.1mph /  17.9km/h 92% 0.0in /  0mm WeatherDisplay:10.37 W/m2 FEW
20:38 -2.9 °F /  -19.4 °C -4.0 °F /  -20 °C 1006.0in /  34063.2hPa ESE 2.7mph /  4.3km/h 5.6mph /  9km/h 92% 0.0in /  0mm WeatherDisplay:10.37 W/m2 FEW
20:43 -2.8 °F /  -19.3 °C -3.9 °F /  -19.9 °C 1006.0in /  34063.2hPa ESE 4.8mph /  7.7km/h 9.3mph /  15km/h 92% 0.0in /  0mm WeatherDisplay:10.37 W/m2 FEW
20:48 -2.7 °F /  -19.3 °C -3.8 °F /  -19.9 °C 1006.0in /  34063.2hPa ESE 2.6mph /  4.2km/h 5.6mph /  9km/h 92% 0.0in /  0mm WeatherDisplay:10.37 W/m2 FEW
20:53 -2.7 °F /  -19.3 °C -3.8 °F /  -19.9 °C 1006.0in /  34063.2hPa Calm   5.6mph /  9km/h 92% 0.0in /  0mm WeatherDisplay:10.37 W/m2 FEW
20:58 -2.7 °F /  -19.3 °C -3.8 °F /  -19.9 °C 1006.0in /  34063.2hPa NE 6.3mph /  10.1km/h 18.5mph /  29.8km/h 92% 0.0in /  0mm WeatherDisplay:10.37 W/m2 FEW
21:03 -2.6 °F /  -19.2 °C -3.7 °F /  -19.8 °C 1005.6in /  34049.6hPa East 3.1mph /  5km/h 5.6mph /  9km/h 92% 0.0in /  0mm WeatherDisplay:10.37 W/m2 FEW
21:08 -2.6 °F /  -19.2 °C -3.7 °F /  -19.8 °C 1005.6in /  34049.6hPa ESE 2.3mph /  3.7km/h 5.6mph /  9km/h 92% 0.0in /  0mm WeatherDisplay:10.37 W/m2 FEW
21:13 -2.6 °F /  -19.2 °C -3.7 °F /  -19.8 °C 1005.6in /  34049.6hPa East 5.8mph /  9.3km/h 14.8mph /  23.8km/h 92% 0.0in /  0mm WeatherDisplay:10.37 W/m2 FEW
21:18 -2.5 °F /  -19.2 °C -3.6 °F /  -19.8 °C 1005.6in /  34049.6hPa East 2.4mph /  3.9km/h 7.4mph /  11.9km/h 92% 0.0in /  0mm WeatherDisplay:10.37 W/m2 FEW
21:23 -2.4 °F /  -19.1 °C -3.6 °F /  -19.8 °C 1005.3in /  34039.5hPa ESE 3.1mph /  5km/h 14.8mph /  23.8km/h 92% 0.0in /  0mm WeatherDisplay:10.37 W/m2 FEW
21:28 -2.4 °F /  -19.1 °C -3.6 °F /  -19.8 °C 1005.3in /  34039.5hPa SSE 5.1mph /  8.2km/h 16.7mph /  26.9km/h 92% 0.0in /  0mm WeatherDisplay:10.37 W/m2 FEW
21:33 -2.4 °F /  -19.1 °C -3.6 °F /  -19.8 °C 1005.3in /  34039.5hPa East 10.3mph /  16.6km/h 13.0mph /  20.9km/h 92% 0.0in /  0mm WeatherDisplay:10.37 W/m2 FEW
21:38 -2.4 °F /  -19.1 °C -3.6 °F /  -19.8 °C 1005.3in /  34039.5hPa East 4.7mph /  7.6km/h 13.0mph /  20.9km/h 92% 0.0in /  0mm WeatherDisplay:10.37 W/m2 FEW
21:43 -2.4 °F /  -19.1 °C -3.6 °F /  -19.8 °C 1005.0in /  34029.3hPa ESE 7.9mph /  12.7km/h 16.7mph /  26.9km/h 92% 0.0in /  0mm WeatherDisplay:10.37 W/m2 FEW
21:48 -2.4 °F /  -19.1 °C -3.5 °F /  -19.7 °C 1005.0in /  34029.3hPa SSE 8.4mph /  13.5km/h 14.8mph /  23.8km/h 92% 0.0in /  0mm WeatherDisplay:10.37 W/m2 FEW
21:53 -2.4 °F /  -19.1 °C -3.5 °F /  -19.7 °C 1005.0in /  34029.3hPa SE 2.7mph /  4.3km/h 5.6mph /  9km/h 92% 0.0in /  0mm WeatherDisplay:10.37 W/m2 FEW
21:58 -2.4 °F /  -19.1 °C -3.5 °F /  -19.7 °C 1005.0in /  34029.3hPa ESE 3.7mph /  6km/h 5.6mph /  9km/h 92% 0.0in /  0mm WeatherDisplay:10.37 W/m2 FEW
22:03 -2.4 °F /  -19.1 °C -3.5 °F /  -19.7 °C 1005.0in /  34029.3hPa East 6.9mph /  11.1km/h 13.0mph /  20.9km/h 92% 0.0in /  0mm WeatherDisplay:10.37 W/m2 FEW
22:08 -2.4 °F /  -19.1 °C -3.5 °F /  -19.7 °C 1005.3in /  34039.5hPa SE 2.4mph /  3.9km/h 11.1mph /  17.9km/h 92% 0.0in /  0mm WeatherDisplay:10.37 W/m2 FEW
22:13 -2.4 °F /  -19.1 °C -3.5 °F /  -19.7 °C 1005.3in /  34039.5hPa East 8.0mph /  12.9km/h 18.5mph /  29.8km/h 92% 0.0in /  0mm WeatherDisplay:10.37 W/m2 FEW
22:18 -2.3 °F /  -19.1 °C -3.4 °F /  -19.7 °C 1005.0in /  34029.3hPa South 3.9mph /  6.3km/h 11.1mph /  17.9km/h 92% 0.0in /  0mm WeatherDisplay:10.37 W/m2 FEW
22:23 -2.4 °F /  -19.1 °C -3.5 °F /  -19.7 °C 1005.0in /  34029.3hPa East 2.1mph /  3.4km/h 3.2mph /  5.1km/h 92% 0.0in /  0mm WeatherDisplay:10.37 W/m2 FEW
22:28 -2.4 °F /  -19.1 °C -3.5 °F /  -19.7 °C 1005.0in /  34029.3hPa SSE 6.8mph /  10.9km/h 13.0mph /  20.9km/h 92% 0.0in /  0mm WeatherDisplay:10.37 W/m2 FEW
22:33 -2.4 °F /  -19.1 °C -3.5 °F /  -19.7 °C 1005.0in /  34029.3hPa SE 6.8mph /  10.9km/h 13.0mph /  20.9km/h 92% 0.0in /  0mm WeatherDisplay:10.37 W/m2 FEW
22:38 -2.4 °F /  -19.1 °C -3.5 °F /  -19.7 °C 1005.0in /  34029.3hPa SE 1.3mph /  2.1km/h 7.4mph /  11.9km/h 92% 0.0in /  0mm WeatherDisplay:10.37 W/m2 FEW
22:43 -2.3 °F /  -19.1 °C -3.4 °F /  -19.7 °C 1005.0in /  34029.3hPa East 4.2mph /  6.8km/h 13.0mph /  20.9km/h 92% 0.0in /  0mm WeatherDisplay:10.37 W/m2 FEW
22:48 -2.3 °F /  -19.1 °C -3.3 °F /  -19.6 °C 1005.0in /  34029.3hPa ESE 7.1mph /  11.4km/h 18.5mph /  29.8km/h 93% 0.0in /  0mm WeatherDisplay:10.37 W/m2 FEW
22:53 -2.3 °F /  -19.1 °C -3.3 °F /  -19.6 °C 1005.0in /  34029.3hPa ENE 1.1mph /  1.8km/h 5.6mph /  9km/h 93% 0.0in /  0mm WeatherDisplay:10.37 W/m2 FEW
22:59 -2.3 °F /  -19.1 °C -3.3 °F /  -19.6 °C 1004.6in /  34015.8hPa SE 6.6mph /  10.6km/h 11.1mph /  17.9km/h 93% 0.0in /  0mm WeatherDisplay:10.37 W/m2 FEW
23:04 -2.3 °F /  -19.1 °C -3.3 °F /  -19.6 °C 1004.6in /  34015.8hPa ESE 0.8mph /  1.3km/h 11.1mph /  17.9km/h 93% 0.0in /  0mm WeatherDisplay:10.37 W/m2 FEW
23:09 -2.3 °F /  -19.1 °C -3.3 °F /  -19.6 °C 1004.6in /  34015.8hPa East 5.1mph /  8.2km/h 11.1mph /  17.9km/h 93% 0.0in /  0mm WeatherDisplay:10.37 W/m2 FEW
23:14 -2.3 °F /  -19.1 °C -3.3 °F /  -19.6 °C 1004.6in /  34015.8hPa ENE 5.6mph /  9km/h 6.4mph /  10.3km/h 93% 0.0in /  0mm WeatherDisplay:10.37 W/m2 FEW
23:19 -2.3 °F /  -19.1 °C -3.3 °F /  -19.6 °C 1004.6in /  34015.8hPa ESE 5.1mph /  8.2km/h 8.0mph /  12.9km/h 93% 0.0in /  0mm WeatherDisplay:10.37 W/m2 FEW
23:24 -2.2 °F /  -19 °C -3.2 °F /  -19.6 °C 1004.6in /  34015.8hPa SSE 5.8mph /  9.3km/h 18.5mph /  29.8km/h 93% 0.0in /  0mm WeatherDisplay:10.37 W/m2 FEW
23:29 -2.2 °F /  -19 °C -3.2 °F /  -19.6 °C 1004.6in /  34015.8hPa East 7.2mph /  11.6km/h 16.7mph /  26.9km/h 93% 0.0in /  0mm WeatherDisplay:10.37 W/m2 FEW
23:34 -2.2 °F /  -19 °C -3.2 °F /  -19.6 °C 1004.6in /  34015.8hPa SE 6.8mph /  10.9km/h 13.0mph /  20.9km/h 93% 0.0in /  0mm WeatherDisplay:10.37 W/m2 FEW
23:39 -2.2 °F /  -19 °C -3.2 °F /  -19.6 °C 1004.6in /  34015.8hPa SSE 5.1mph /  8.2km/h 11.3mph /  18.2km/h 93% 0.0in /  0mm WeatherDisplay:10.37 W/m2 FEW
23:44 -2.2 °F /  -19 °C -3.2 °F /  -19.6 °C 1004.3in /  34005.6hPa East 8.2mph /  13.2km/h 13.0mph /  20.9km/h 93% 0.0in /  0mm WeatherDisplay:10.37 W/m2 FEW
23:49 -2.2 °F /  -19 °C -3.2 °F /  -19.6 °C 1004.3in /  34005.6hPa ESE 6.6mph /  10.6km/h 13.0mph /  20.9km/h 93% 0.0in /  0mm WeatherDisplay:10.37 W/m2 FEW
23:54 -2.2 °F /  -19 °C -3.2 °F /  -19.6 °C 1004.3in /  34005.6hPa NE 5.5mph /  8.9km/h 13.0mph /  20.9km/h 93% 0.0in /  0mm WeatherDisplay:10.37 W/m2 FEW
23:59 -2.2 °F /  -19 °C -3.2 °F /  -19.6 °C 1003.9in /  33992.1hPa ESE 4.2mph /  6.8km/h 9.3mph /  15km/h 93% 0.0in /  0mm WeatherDisplay:10.37 W/m2 FEW
Tuulensuunkaari, Veikkola, Suomi
Compliments of Weather Underground - 2.75 mb